Location: Gleizolles
(44.4833°N, 6.7667°E)
Time: 15:29:43
(UTC+00:00)

Altair - Pass Details

Date: 30 June 2024
Orbit: 1502 x 1681 km, 47.2° (Epoch: 13 July)

Event Time Altitude Azimuth Distance (km) Brightness Sun altitude
Rises 04:11:37 0° 290° (WNW) 4,670 9.7 2.1°
Reaches altitude 10° 04:14:37 10° 290° (WNW) 3,703 9.2 2.6°
Maximum altitude 04:23:59 78° 206° (SSW) 1,599 7.7 4.1°
Drops below altitude 10° 04:33:42 10° 122° (ESE) 3,832 10.1 5.6°
Sets 04:36:51 0° 121° (ESE) 4,840 10.6 6.1°
